Date String (YYYY-MM-DD hh:mm:ss) UTC,Instrument flags,Ambient pressure (hPa),Sample flow (lpm),Bypass flow (lpm),Sample temperature (°C),Ambient temperature (°C),ASC tube jacket temperature (°C),LED temperature (°C),Box temperature (°C),Sample RH (%),Span deviation,Mass concentration (μg/m³),Mass concentration (μg/m³),Mass concentration (μg/m³)
DateTimeUTC,F1_M11,P_M11,Q1_M11,Q2_M11,T1_M11,T2_M11,T3_M11,T4_M11,T5_M11,U1_M11,ZSPAN_M11,X0_M11,X2_M11,X1_M11
2022-11-26 02:00:00,,0827.7,5.01,0.00,27.0,25.4,00.0,36.0,28.6,10.6,0000.0,0001.76,0001.10,0000.86
2022-11-26 02:01:00,,0827.7,4.99,0.00,27.0,25.4,00.0,36.0,28.6,10.5,0000.0,0001.75,0001.06,0000.84
2022-11-26 02:02:00,,0827.7,5.01,0.00,27.0,25.3,00.0,36.0,28.7,10.5,0000.0,0001.75,0001.07,0000.84
2022-11-26 02:03:00,,0827.7,4.98,0.00,27.0,25.4,00.0,36.0,28.7,10.5,0000.0,0001.96,0001.08,0000.83
2022-11-26 02:04:00,,0827.7,5.01,0.00,26.9,25.4,00.0,36.0,28.7,10.5,0000.0,0002.07,0001.06,0000.83
2022-11-26 02:05:00,,0827.7,4.99,0.00,26.9,25.3,00.0,36.0,28.7,10.5,0000.0,0001.97,0001.03,0000.82
2022-11-26 02:06:00,,0827.7,5.01,0.00,26.9,25.3,00.0,36.0,28.6,10.5,0000.0,0001.89,0001.01,0000.82
2022-11-26 02:07:00,,0827.7,4.99,0.00,26.9,25.3,00.0,35.9,28.6,10.5,0000.0,0001.88,0001.00,0000.82
2022-11-26 02:08:00,,0827.7,5.00,0.00,26.9,25.3,00.0,35.9,28.6,10.6,0000.0,0001.81,0000.97,0000.81
2022-11-26 02:09:00,,0827.7,5.00,0.00,26.9,25.3,00.0,35.9,28.6,10.5,0000.0,0001.80,0000.96,0000.81
2022-11-26 02:10:00,,0827.6,4.99,0.00,26.9,25.3,00.0,35.9,28.6,10.5,0000.0,0001.88,0000.96,0000.80
2022-11-26 02:11:00,,0827.6,5.01,0.00,26.9,25.3,00.0,35.9,28.6,10.5,0000.0,0001.88,0000.94,0000.80
2022-11-26 02:12:00,,0827.6,4.99,0.00,26.9,25.3,00.0,35.9,28.6,10.6,0000.0,0001.79,0000.92,0000.81
2022-11-26 02:13:00,,0827.6,5.02,0.00,26.9,25.2,00.0,35.9,28.7,10.5,0000.0,0001.73,0000.91,0000.80
2022-11-26 02:14:00,,0827.6,4.98,0.00,26.9,25.2,00.0,35.9,28.7,10.5,0000.0,0001.58,0000.89,0000.79
2022-11-26 02:15:00,,0827.6,5.02,0.00,26.8,25.2,00.0,35.9,28.6,10.6,0000.0,0001.44,0000.90,0000.79
2022-11-26 02:16:00,,0827.5,4.99,0.00,26.8,25.2,00.0,35.9,28.5,10.6,0000.0,0001.44,0000.89,0000.77
2022-11-26 02:17:00,,0827.5,5.01,0.00,26.8,25.2,00.0,35.8,28.5,10.6,0000.0,0001.78,0000.89,0000.76
2022-11-26 02:18:00,,0827.5,5.00,0.00,26.8,25.2,00.0,35.8,28.5,10.6,0000.0,0001.80,0000.89,0000.76
2022-11-26 02:19:00,,0827.5,5.00,0.00,26.8,25.1,00.0,35.8,28.5,10.6,0000.0,0001.87,0000.91,0000.77
2022-11-26 02:20:00,,0827.5,5.01,0.00,26.8,25.1,00.0,35.8,28.5,10.6,0000.0,0001.99,0000.93,0000.77
2022-11-26 02:21:00,,0827.5,4.99,0.00,26.8,25.1,00.0,35.8,28.5,10.7,0000.0,0001.88,0000.91,0000.75
2022-11-26 02:22:00,,0827.5,5.01,0.00,26.7,25.1,00.0,35.8,28.3,10.7,0000.0,0001.97,0000.96,0000.75
2022-11-26 02:23:00,,0827.5,4.99,0.00,26.7,25.1,00.0,35.7,28.3,10.7,0000.0,0002.07,0000.99,0000.76
2022-11-26 02:24:00,,0827.4,5.01,0.00,26.7,25.0,00.0,35.7,28.3,10.7,0000.0,0002.06,0001.02,0000.78
2022-11-26 02:25:00,,0827.4,5.01,0.00,26.7,25.0,00.0,35.7,28.3,10.7,0000.0,0001.96,0001.01,0000.79
2022-11-26 02:26:00,,0827.4,4.99,0.00,26.7,25.0,00.0,35.7,28.4,10.7,0000.0,0001.94,0001.00,0000.79
2022-11-26 02:27:00,,0827.4,5.01,0.00,26.7,25.0,00.0,35.7,28.4,10.8,0000.0,0002.01,0001.03,0000.80
2022-11-26 02:28:00,,0827.4,4.99,0.00,26.6,25.0,00.0,35.7,28.3,10.7,0000.0,0001.79,0001.07,0000.82
2022-11-26 02:29:00,,0827.4,5.01,0.00,26.6,24.9,00.0,35.7,28.3,10.7,0000.0,0001.82,0001.11,0000.83
2022-11-26 02:30:00,,0827.4,4.98,0.00,26.6,24.9,00.0,35.7,28.3,10.7,0000.0,0001.84,0001.13,0000.83
2022-11-26 02:31:00,,0827.4,5.01,0.00,26.6,24.9,00.0,35.7,28.3,10.7,0000.0,0001.81,0001.14,0000.83
2022-11-26 02:32:00,,0827.4,5.00,0.00,26.6,24.9,00.0,35.6,28.3,10.7,0000.0,0001.86,0001.15,0000.85
2022-11-26 02:33:00,,0827.4,4.99,0.00,26.6,24.9,00.0,35.6,28.2,10.8,0000.0,0001.74,0001.12,0000.85
2022-11-26 02:34:00,,0827.4,5.01,0.00,26.5,24.9,00.0,35.6,28.1,10.8,0000.0,0001.66,0001.09,0000.85
2022-11-26 02:35:00,,0827.4,5.01,0.00,26.5,24.9,00.0,35.6,28.2,10.8,0000.0,0001.59,0001.06,0000.84
2022-11-26 02:36:00,,0827.4,4.99,0.00,26.5,24.9,00.0,35.6,28.2,10.8,0000.0,0001.61,0001.07,0000.84
2022-11-26 02:37:00,,0827.4,5.01,0.00,26.5,24.9,00.0,35.6,28.1,10.8,0000.0,0001.69,0001.10,0000.86
2022-11-26 02:38:00,,0827.4,4.99,0.00,26.5,24.9,00.0,35.6,28.0,10.8,0000.0,0001.66,0001.11,0000.87
2022-11-26 02:39:00,,0827.4,5.00,0.00,26.5,24.9,00.0,35.5,28.1,10.8,0000.0,0001.62,0001.09,0000.87
2022-11-26 02:40:00,,0827.4,5.00,0.00,26.4,24.8,00.0,35.5,28.0,10.8,0000.0,0002.75,0001.07,0000.88
2022-11-26 02:41:00,,0827.4,5.00,0.00,26.4,24.8,00.0,35.5,28.0,10.9,0000.0,0002.84,0001.04,0000.89
2022-11-26 02:42:00,,0827.4,5.01,0.00,26.4,24.8,00.0,35.5,28.0,10.9,0000.0,0002.80,0001.03,0000.90
2022-11-26 02:43:00,,0827.4,4.99,0.00,26.4,24.8,00.0,35.5,28.0,10.9,0000.0,0002.81,0001.06,0000.90
2022-11-26 02:44:00,,0827.3,5.01,0.00,26.4,24.8,00.0,35.5,28.1,10.9,0000.0,0002.88,0001.08,0000.89
2022-11-26 02:45:00,,0827.3,5.01,0.00,26.4,24.8,00.0,35.5,28.1,10.9,0000.0,0002.90,0001.08,0000.88
2022-11-26 02:46:00,,0827.2,5.00,0.00,26.4,24.8,00.0,35.5,28.1,10.8,0000.0,0002.93,0001.09,0000.88
2022-11-26 02:47:00,,0827.2,4.99,0.00,26.4,24.8,00.0,35.5,28.1,10.9,0000.0,0002.90,0001.08,0000.87
2022-11-26 02:48:00,,0827.2,5.01,0.00,26.4,24.7,00.0,35.4,28.0,10.8,0000.0,0002.90,0001.05,0000.85
2022-11-26 02:49:00,,0827.3,5.00,0.00,26.4,24.7,00.0,35.4,28.0,10.9,0000.0,0002.93,0001.03,0000.84
2022-11-26 02:50:00,,0827.4,4.98,0.00,26.4,24.7,00.0,35.4,28.0,10.9,0000.0,0002.88,0001.01,0000.82
2022-11-26 02:51:00,,0827.2,5.01,0.00,26.4,24.7,00.0,35.4,28.2,10.9,0000.0,0001.68,0001.02,0000.81
2022-11-26 02:52:00,,0827.2,5.01,0.00,26.3,24.7,00.0,35.4,28.1,10.9,0000.0,0001.55,0001.03,0000.80
2022-11-26 02:53:00,,0827.2,5.00,0.00,26.3,24.7,00.0,35.4,28.1,10.9,0000.0,0001.60,0001.03,0000.79
2022-11-26 02:54:00,,0827.2,5.00,0.00,26.3,24.7,00.0,35.4,28.0,11.1,0000.0,0001.60,0001.02,0000.79
2022-11-26 02:55:00,,0827.2,4.98,0.00,26.3,24.6,00.0,35.4,28.1,11.1,0000.0,0001.60,0001.00,0000.78
2022-11-26 02:56:00,,0827.2,5.01,0.00,26.3,24.7,00.0,35.4,28.0,10.9,0000.0,0001.62,0000.99,0000.78
2022-11-26 02:57:00,,0827.2,5.00,0.00,26.3,24.6,00.0,35.3,27.9,10.9,0000.0,0001.58,0000.99,0000.78
2022-11-26 02:58:00,,0827.2,5.00,0.00,26.2,24.6,00.0,35.3,27.8,10.9,0000.0,0001.59,0000.98,0000.78
2022-11-26 02:59:00,,0827.1,5.00,0.00,26.2,24.6,00.0,35.3,27.9,10.9,0000.0,0001.57,0000.99,0000.79
